Home > Weather > Tianjin > Past weeks

Flag for China Past Weather in Tianjin, Tianjin Municipality, China — Yesterday and Last 2 Weeks

Now
72 °F

Clear.


Feels Like: 76 °F
Forecast: 59 / 79 °F
Wind: 1 mph from West

Location: Tianjin / Zhangguizhu

Current Time: Aug 25, 2016 at 9:32:00 PM

Latest Report: Aug 25, 2016 at 9:00 PM


Visibility: 10 mi

Pressure: 29.98 "Hg

Humidity: 61%

Dew Point: 57 °F

Location of TianjinLocation

Past Weather in Tianjin — Graph

°F

Tianjin Temperature Yesterday

Maximum temperature yesterday: 88 °F (at 2:00 PM)
Minimum temperature yesterday: 79 °F (at 3:30 AM)
Average temperature yesterday: 82 °F

High & Low Weather Summary for the Past Weeks

 TemperatureHumidityPressure
High93 °F (Aug 11, 1:30 PM)100% (Aug 12, 4:00 PM)29.95 "Hg (Aug 12, 4:00 PM)
Low68 °F (Aug 16, 5:30 AM)33% (Aug 22, 4:30 PM)29.53 "Hg (Aug 18, 12:30 PM)
Average80 °F73%29.71 "Hg
* Reported Aug 10 8:00 PM — Aug 25 8:00 PM, Tianjin, Weather by CustomWeather, © 2016

Note: Actual official high and low records may vary slightly from our data, if they occured in-between our weather recording intervals... More about our weather records

Advertising

Tianjin Weather History for the Previous 24 Hours

Scroll right to see more
 ConditionsComfort  
Time TempWeatherWind HumidityBarometerVisibility
8:00 PM
Thu, Aug 25
72 °FClear.1 mph61%29.95 "Hg10 mi
7:30 PM73 °FClear.1 mph57%29.95 "Hg10 mi
7:00 PM73 °FClear.1 mph53%29.92 "Hg10 mi
6:30 PM77 °FSunny.1 mph42%29.92 "Hg10 mi
6:00 PM77 °FPassing clouds.3 mph44%29.92 "HgN/A
5:30 PM77 °FSunny.6 mph44%29.92 "Hg10 mi
5:00 PM77 °FPassing clouds.6 mph44%29.92 "HgN/A
4:30 PM79 °FPassing clouds.8 mph39%29.92 "HgN/A
4:00 PM79 °FPassing clouds.10 mph39%29.92 "HgN/A
3:30 PM79 °FSunny.13 mph39%29.92 "Hg10 mi
3:00 PM77 °FSunny.15 mph42%29.89 "Hg10 mi
2:30 PM77 °FSunny.17 mph42%29.89 "Hg10 mi
2:00 PM75 °FSunny.15 mph50%29.92 "Hg10 mi
1:30 PM75 °FSunny.15 mph47%29.89 "Hg10 mi
1:00 PM75 °FSunny.17 mph50%29.89 "Hg10 mi
12:30 PM75 °FPassing clouds.24 mph50%29.89 "HgN/A
12:00 PM77 °FSunny.24 mph47%29.89 "Hg10 mi
11:30 AM77 °FSunny.22 mph51%29.89 "Hg10 mi
11:00 AM77 °FSunny.17 mph57%29.86 "Hg10 mi
10:30 AM81 °FSunny.15 mph51%29.83 "Hg10 mi
10:00 AM81 °FSunny.20 mph48%29.83 "Hg10 mi
9:30 AM81 °FSunny.22 mph51%29.80 "Hg10 mi
9:00 AM81 °FSunny.22 mph54%29.80 "Hg10 mi
8:30 AM81 °FSunny.20 mph58%29.77 "Hg10 mi
8:00 AM81 °FSunny.22 mph62%29.74 "Hg10 mi
7:30 AM81 °FSunny.15 mph58%29.71 "Hg10 mi
7:00 AM79 °FSunny.15 mph58%29.71 "Hg10 mi
6:30 AM79 °FSunny.13 mph58%29.68 "Hg10 mi
6:00 AM79 °FSunny.15 mph65%29.65 "Hg10 mi
5:30 AM79 °FFog.13 mph79%29.65 "Hg2 mi
5:00 AM79 °FFog.10 mph89%29.62 "Hg1 mi
4:30 AM79 °FFog.8 mph94%29.62 "Hg1 mi
4:00 AM81 °FFog.6 mph94%29.62 "Hg1 mi
3:30 AM81 °FFog.6 mph94%29.62 "Hg1 mi
3:00 AM81 °FFog.6 mph94%29.62 "Hg1 mi
2:30 AM81 °FFog.1 mph94%29.62 "Hg1 mi
2:00 AM81 °FFog.3 mph94%29.62 "Hg1 mi
1:30 AM81 °FFog.3 mph94%29.62 "Hg1 mi
1:00 AM81 °FFog.3 mph94%29.62 "Hg1 mi
12:30 AM81 °FFog.1 mph94%29.62 "Hg1 mi
12:00 AM81 °FFog.1 mph94%29.62 "Hg1 mi
11:30 PM
Wed, Aug 24
81 °FFog.1 mph94%29.62 "Hg1 mi
11:00 PM81 °FFog.1 mph89%29.62 "Hg1 mi
10:30 PM81 °FFog.1 mph94%29.62 "Hg1 mi
10:00 PM81 °FFog.1 mph89%29.62 "Hg1 mi
9:30 PM81 °FFog.1 mph89%29.62 "Hg2 mi
9:00 PM81 °FLight rain. Fog.3 mph89%29.65 "Hg1 mi
Weather by CustomWeather, © 2016

See weather overviewHow to use our weather pages